Location: DARK SKY Beskydy - Park tmavé oblohy, www.darkskybeskydy.cz
(49.4926°N, 18.5016°E)
Time: 16:11:02
(UTC+02:00)

PCSat - Pass Details

Date: 12 August 2024
Orbit: 781 x 792 km, 67.0° (Epoch: 13 September)

Event Time Altitude Azimuth Distance (km) Brightness Sun altitude
Rises 23:27:44 0° 324° (NW) 3,300 14.1 -23.3°
Reaches altitude 10° 23:30:47 10° 341° (NNW) 2,369 13.1 -23.5°
Maximum altitude 23:34:48 20° 29° (NNE) 1,751 11.8 -23.7°
Drops below altitude 10° 23:38:47 10° 76° (ENE) 2,363 12.0 -24.0°
Enters shadow 23:39:57 - 84° (E) 2,693 12.2 -24.0°
